period_start,C,m1,H,J0,J1,J2,J3,J4,J5,JA,JB,JC,JD,JJ,JK,JN,#
2018-07-09 00:04:48,-0.00,0.08,0.00,22.75,26.53,29.18,14.17,47.77,1030.16,2032.74,3371.80,3081.95,3548.99,599.73,604.28,6.62,0000 0000 0000 0000 000000
2018-07-09 00:09:49,-0.03,0.07,0.00,22.76,26.55,29.15,14.21,47.87,1030.25,2032.47,3371.76,3081.89,3548.97,600.14,604.61,6.67,0000 0000 0000 0000 000000
2018-07-09 00:14:50,-0.00,0.07,0.00,22.79,26.56,29.15,14.10,47.81,1030.28,2032.17,3371.29,3081.42,3548.75,599.94,604.36,6.72,0000 0000 0000 0000 000000
2018-07-09 00:19:52,0.01,0.07,0.00,22.80,26.57,29.16,14.13,47.87,1030.27,2032.07,3371.02,3081.07,3548.24,600.05,604.52,6.77,0000 0000 0000 0000 000000
2018-07-09 00:24:53,0.01,0.07,0.00,22.82,26.58,29.18,14.17,47.92,1030.26,2032.09,3371.00,3081.00,3548.03,600.10,604.56,6.82,0000 0000 0000 0000 000000
2018-07-09 00:29:54,-0.01,0.07,0.00,22.84,26.60,29.19,14.13,47.86,1030.02,2032.06,3370.99,3081.00,3548.01,600.07,604.40,6.87,0000 0000 0000 0000 000000
2018-07-09 00:34:55,0.00,0.07,0.00,22.83,26.60,29.22,14.16,47.82,1030.15,2032.03,3370.95,3080.99,3548.00,600.10,604.42,6.92,0000 0000 0000 0000 000000
2018-07-09 00:39:57,0.01,0.07,0.00,22.86,26.62,29.22,14.16,47.88,1030.18,2032.02,3370.60,3080.97,3548.00,600.15,604.34,6.97,0000 0000 0000 0000 000000
2018-07-09 00:44:58,-0.00,0.08,0.00,22.89,26.62,29.22,14.10,47.69,1030.02,2032.01,3370.21,3080.93,3547.98,599.96,604.11,7.02,0000 0000 0000 0000 000000
2018-07-09 00:49:59,0.01,0.08,0.00,22.90,26.62,29.21,14.11,47.80,1029.96,2032.00,3370.07,3080.68,3547.96,600.08,604.18,7.07,0000 0000 0000 0000 000000
2018-07-09 00:55:00,0.01,0.08,0.00,22.92,26.64,29.22,14.10,47.80,1029.93,2032.00,3370.04,3080.41,3547.80,599.91,603.93,7.12,0000 0000 0000 0000 000000
2018-07-09 01:00:01,0.00,0.08,0.00,22.95,26.65,29.22,14.12,47.77,1030.10,2032.00,3370.01,3080.12,3547.35,600.01,604.05,7.17,0000 0000 0000 0000 000000
2018-07-09 01:05:02,0.00,0.08,0.00,22.97,26.65,29.25,14.05,47.75,1030.10,2032.00,3370.00,3080.04,3547.10,599.86,603.92,7.22,0000 0000 0000 0000 000000
2018-07-09 01:10:03,0.00,0.08,0.00,22.99,26.67,29.24,14.10,47.84,1030.24,2032.00,3369.99,3080.00,3547.04,599.83,603.83,7.27,0000 0000 0000 0000 000000
2018-07-09 01:15:05,0.00,0.08,0.00,23.01,26.67,29.24,14.15,47.73,1030.26,2032.00,3369.99,3080.00,3547.00,600.08,604.19,7.32,0000 0000 0000 0000 000000
2018-07-09 01:20:06,0.00,0.08,0.00,23.03,26.69,29.24,14.13,47.84,1030.26,2031.99,3369.97,3080.00,3547.00,600.26,604.15,7.37,0000 0000 0000 0000 000000
2018-07-09 01:25:07,0.00,0.08,0.00,23.04,26.70,29.27,14.01,47.71,1030.25,2031.99,3369.93,3080.00,3547.00,599.75,603.74,7.42,0000 0000 0000 0000 000000
2018-07-09 01:30:08,0.00,0.08,0.00,23.05,26.71,29.27,14.18,47.88,1030.25,2031.99,3369.82,3080.00,3547.00,600.22,604.08,7.47,0000 0000 0000 0000 000000
2018-07-09 01:35:09,0.01,0.08,0.00,23.08,26.72,29.31,14.19,47.72,1029.94,2031.97,3369.64,3079.97,3546.96,600.23,604.08,7.52,0000 0000 0000 0000 000000
2018-07-09 01:40:10,0.00,0.08,0.00,23.09,26.74,29.31,14.07,47.74,1030.05,2031.91,3369.34,3079.97,3546.84,599.73,603.47,7.57,0000 0000 0000 0000 000000
2018-07-09 01:45:12,-0.02,0.08,0.00,23.12,26.75,29.33,14.09,47.77,1030.17,2031.55,3369.06,3079.84,3546.20,600.13,603.86,7.62,0000 0000 0000 0000 000000
2018-07-09 01:50:13,0.01,0.08,0.00,23.14,26.76,29.34,14.04,47.85,1030.22,2031.30,3369.00,3079.43,3546.03,599.97,603.60,7.67,0000 0000 0000 0000 000000
2018-07-09 01:55:14,-0.01,0.08,0.00,23.14,26.77,29.36,14.06,47.77,1030.26,2031.23,3369.00,3079.14,3546.01,600.15,603.80,7.72,0000 0000 0000 0000 000000
2018-07-09 02:00:16,-0.00,0.08,0.00,23.17,26.79,29.36,14.12,47.77,1030.27,2031.11,3368.79,3079.01,3545.98,600.08,603.78,7.77,0000 0000 0000 0000 000000
2018-07-09 02:05:17,0.02,0.08,0.00,23.17,26.80,29.38,14.08,47.77,1030.22,2031.03,3368.07,3078.96,3545.37,600.02,603.59,7.82,0000 0000 0000 0000 000000
2018-07-09 02:10:18,0.00,0.08,0.00,23.19,26.82,29.39,14.21,47.83,1030.16,2031.02,3367.99,3078.86,3545.04,600.36,603.91,7.87,0000 0000 0000 0000 000000
2018-07-09 02:15:19,0.02,0.08,0.00,23.21,26.83,29.41,14.12,47.88,1030.23,2031.01,3367.75,3078.21,3545.00,599.98,603.69,7.92,0000 0000 0000 0000 000000
2018-07-09 02:20:20,0.01,0.08,0.00,23.23,26.85,29.43,14.04,47.67,1030.21,2031.00,3367.08,3078.01,3544.93,599.77,603.30,7.97,0000 0000 0000 0000 000000
2018-07-09 02:25:21,0.00,0.08,0.00,23.26,26.86,29.45,13.99,47.88,1030.19,2031.00,3367.00,3078.00,3544.63,599.94,603.40,8.02,0000 0000 0000 0000 000000
2018-07-09 02:30:23,0.00,0.08,0.00,23.27,26.87,29.45,14.04,47.71,1030.13,2031.00,3366.99,3077.99,3544.08,599.88,603.33,8.07,0000 0000 0000 0000 000000
2018-07-09 02:35:24,-0.00,0.08,0.00,23.28,26.89,29.49,14.11,47.96,1030.27,2031.00,3366.96,3077.96,3544.01,600.00,603.42,8.12,0000 0000 0000 0000 000000
2018-07-09 02:40:25,0.01,0.08,0.00,23.29,26.90,29.50,14.13,47.81,1030.28,2030.99,3366.71,3077.83,3544.00,600.16,603.60,8.17,0000 0000 0000 0000 000000
2018-07-09 02:45:26,0.01,0.08,0.00,23.31,26.92,29.51,14.12,47.79,1030.25,2030.98,3366.25,3077.56,3544.00,600.24,603.59,8.22,0000 0000 0000 0000 000000
2018-07-09 02:50:28,0.01,0.08,0.00,23.33,26.94,29.51,14.05,47.81,1030.03,2030.97,3366.01,3077.07,3543.79,599.83,603.03,8.27,0000 0000 0000 0000 000000
2018-07-09 02:55:29,-0.01,0.08,0.00,23.35,26.95,29.53,14.02,47.84,1030.06,2030.84,3366.00,3077.00,3543.14,599.78,603.05,8.32,0000 0000 0000 0000 000000
2018-07-09 03:00:30,-0.00,0.08,0.00,23.37,26.97,29.54,14.10,47.90,1030.04,2030.72,3365.98,3077.00,3543.02,600.30,603.33,8.38,0000 0000 0000 0000 000000
2018-07-09 03:05:31,-0.01,0.08,0.00,23.38,26.98,29.56,14.09,47.89,1030.14,2030.50,3365.76,3076.98,3543.00,600.04,603.24,8.43,0000 0000 0000 0000 000000
2018-07-09 03:10:33,-0.01,0.08,0.00,23.40,27.00,29.58,14.12,47.83,1030.09,2030.33,3365.25,3076.95,3542.99,600.16,603.27,8.48,0000 0000 0000 0000 000000
2018-07-09 03:15:34,0.00,0.08,0.00,23.42,27.01,29.58,14.14,47.88,1029.88,2030.16,3365.04,3076.58,3542.92,600.19,603.23,8.53,0000 0000 0000 0000 000000
2018-07-09 03:20:35,0.01,0.08,0.00,23.43,27.02,29.60,14.12,47.82,1029.87,2030.03,3365.00,3076.11,3542.38,600.34,603.27,8.58,0000 0000 0000 0000 000000
2018-07-09 03:25:36,0.00,0.08,0.00,23.45,27.05,29.63,14.06,47.82,1029.85,2030.01,3364.98,3076.01,3542.06,599.89,602.82,8.63,0000 0000 0000 0000 000000
2018-07-09 03:30:38,-0.00,0.08,0.00,23.47,27.06,29.64,14.06,47.83,1029.81,2030.01,3364.96,3076.00,3542.01,599.99,602.98,8.68,0000 0000 0000 0000 000000
2018-07-09 03:35:39,0.01,0.08,0.00,23.47,27.07,29.66,14.06,47.89,1029.81,2030.00,3364.61,3076.00,3542.00,599.84,602.70,8.73,0000 0000 0000 0000 000000
2018-07-09 03:40:40,0.01,0.08,0.00,23.50,27.10,29.66,14.15,47.78,1029.81,2030.00,3364.13,3075.97,3541.97,599.98,602.74,8.78,0000 0000 0000 0000 000000
2018-07-09 03:45:42,0.00,0.08,0.00,23.52,27.11,29.67,14.09,47.66,1029.81,2030.00,3364.01,3075.83,3541.65,599.87,602.71,8.83,0000 0000 0000 0000 000000
2018-07-09 03:50:43,0.02,0.08,0.00,23.54,27.12,29.69,14.18,47.74,1029.81,2030.00,3364.00,3075.29,3541.14,600.03,602.71,8.88,0000 0000 0000 0000 000000
2018-07-09 03:55:44,0.00,0.08,0.00,23.55,27.15,29.73,14.10,47.69,1029.84,2029.99,3363.97,3075.04,3541.01,600.14,602.78,8.93,0000 0000 0000 0000 000000
2018-07-09 04:00:46,0.00,0.08,0.00,23.56,27.16,29.74,14.08,47.59,1029.97,2029.97,3363.76,3075.00,3541.00,599.83,602.60,8.98,0000 0000 0000 0000 000000
2018-07-09 04:05:47,0.01,0.08,0.00,23.57,27.17,29.75,14.05,47.73,1030.01,2029.97,3363.26,3075.00,3540.96,599.95,602.63,9.03,0000 0000 0000 0000 000000
2018-07-09 04:10:48,0.00,0.08,0.00,23.60,27.20,29.77,14.13,47.62,1029.88,2029.94,3363.02,3074.99,3540.82,600.06,602.69,9.08,0000 0000 0000 0000 000000
2018-07-09 04:15:50,0.00,0.08,0.00,23.61,27.21,29.78,14.03,47.54,1029.84,2029.83,3363.00,3074.97,3540.31,600.09,602.62,9.13,0000 0000 0000 0000 000000
2018-07-09 04:20:51,-0.02,0.08,0.00,23.62,27.22,29.81,14.12,47.70,1029.82,2029.56,3363.00,3074.91,3540.06,600.33,602.78,9.18,0000 0000 0000 0000 000000
2018-07-09 04:25:52,-0.01,0.08,0.00,23.65,27.25,29.82,14.06,47.67,1029.81,2029.34,3362.88,3074.27,3540.00,600.13,602.59,9.23,0000 0000 0000 0000 000000
2018-07-09 04:30:53,-0.00,0.08,0.00,23.67,27.26,29.83,14.08,47.77,1029.80,2029.11,3362.48,3074.02,3539.97,600.10,602.51,9.28,0000 0000 0000 0000 000000
2018-07-09 04:35:55,-0.00,0.08,0.00,23.68,27.27,29.84,14.07,47.75,1029.81,2029.01,3362.05,3074.00,3539.84,599.77,602.16,9.33,0000 0000 0000 0000 000000
2018-07-09 04:40:56,0.01,0.08,0.00,23.70,27.29,29.85,14.04,47.52,1029.82,2029.01,3362.01,3074.00,3539.32,600.12,602.52,9.38,0000 0000 0000 0000 000000
2018-07-09 04:45:57,0.00,0.08,0.00,23.70,27.30,29.87,14.09,47.72,1029.81,2029.00,3362.00,3074.00,3539.05,600.05,602.39,9.43,0000 0000 0000 0000 000000
2018-07-09 04:50:58,0.00,0.08,0.00,23.72,27.32,29.91,14.03,47.73,1029.81,2029.00,3361.98,3073.95,3539.00,599.71,602.07,9.48,0000 0000 0000 0000 000000
2018-07-09 04:55:59,0.00,0.08,0.00,23.74,27.34,29.91,14.04,47.66,1029.82,2029.00,3361.98,3073.91,3539.00,599.97,602.25,9.53,0000 0000 0000 0000 000000
2018-07-09 05:01:00,0.01,0.08,0.00,23.76,27.35,29.91,14.09,47.63,1029.81,2029.00,3361.92,3073.68,3538.99,600.34,602.61,9.58,0000 0000 0000 0000 000000
2018-07-09 05:06:01,0.02,0.08,0.00,23.77,27.37,29.94,14.01,47.62,1029.80,2029.00,3361.35,3073.13,3538.92,599.89,602.12,9.63,0000 0000 0000 0000 000000
2018-07-09 05:11:03,0.01,0.09,0.00,23.78,27.38,29.95,14.06,47.55,1029.80,2028.99,3361.04,3073.02,3538.53,599.76,601.93,9.68,0000 0000 0000 0000 000000
2018-07-09 05:16:04,0.00,0.09,0.00,23.80,27.40,29.97,14.09,47.66,1029.73,2028.98,3361.00,3073.00,3538.14,599.23,601.31,9.73,0000 0000 0000 0000 000000
2018-07-09 05:21:06,0.00,0.09,0.00,23.82,27.42,29.97,14.04,47.46,1029.47,2028.99,3361.00,3073.00,3538.02,600.23,602.15,9.78,0000 0000 0000 0000 000000
2018-07-09 05:26:07,-0.00,0.09,0.00,23.83,27.43,30.00,14.13,47.76,1029.37,2028.95,3360.95,3072.99,3538.00,600.00,601.72,9.83,0000 0000 0000 0000 000000
2018-07-09 05:31:08,0.00,0.09,0.00,23.85,27.45,30.01,14.03,47.51,1029.35,2028.94,3360.71,3072.95,3538.00,599.72,601.49,9.88,0000 0000 0000 0000 000000
2018-07-09 05:36:09,0.01,0.09,0.00,23.87,27.47,30.04,14.18,47.52,1029.36,2028.85,3360.16,3072.67,3537.93,600.27,602.10,9.93,0000 0000 0000 0000 000000
2018-07-09 05:41:11,-0.01,0.09,0.00,23.89,27.48,30.05,14.07,47.55,1029.34,2028.60,3360.03,3072.18,3537.60,600.44,602.09,9.98,0000 0000 0000 0000 000000
2018-07-09 05:46:12,-0.01,0.09,0.00,23.91,27.50,30.06,14.10,47.62,1029.32,2028.28,3360.00,3072.05,3537.14,600.18,601.82,10.03,0000 0000 0000 0000 000000
2018-07-09 05:51:13,-0.01,0.09,0.00,23.92,27.52,30.08,13.99,47.49,1029.33,2028.10,3359.99,3072.01,3537.01,599.81,601.44,10.08,0000 0000 0000 0000 000000
2018-07-09 05:56:14,-0.00,0.08,0.00,23.93,27.54,30.09,14.02,47.57,1029.31,2028.07,3359.94,3072.00,3537.00,600.03,601.57,10.13,0000 0000 0000 0000 000000
2018-07-09 06:01:16,-0.00,0.08,0.00,23.96,27.55,30.11,14.09,47.53,1029.32,2028.01,3359.88,3072.00,3537.00,600.23,601.82,10.18,0000 0000 0000 0000 000000
2018-07-09 06:06:17,0.01,0.08,0.00,23.97,27.57,30.13,14.00,47.52,1029.32,2028.01,3359.50,3071.96,3536.94,599.77,601.37,10.23,0000 0000 0000 0000 000000
2018-07-09 06:11:19,0.02,0.09,0.00,23.99,27.59,30.16,14.09,47.57,1029.32,2028.00,3359.03,3071.81,3536.41,600.02,601.40,10.28,0000 0000 0000 0000 000000
2018-07-09 06:16:20,0.01,0.09,0.00,24.00,27.61,30.16,14.01,47.77,1029.31,2028.00,3359.00,3071.19,3536.04,599.91,601.12,10.33,0000 0000 0000 0000 000000
2018-07-09 06:21:21,0.00,0.09,0.00,24.03,27.62,30.19,14.04,47.63,1029.32,2027.99,3358.98,3071.03,3536.00,600.40,601.75,10.38,0000 0000 0000 0000 000000
2018-07-09 06:26:22,0.00,0.09,0.00,24.02,27.65,30.20,14.05,47.59,1029.32,2027.99,3358.82,3071.00,3535.99,599.89,601.26,10.43,0000 0000 0000 0000 000000
2018-07-09 06:31:24,0.02,0.09,0.00,24.04,27.67,30.23,14.04,47.49,1029.31,2027.97,3358.09,3071.00,3535.67,600.14,601.46,10.48,0000 0000 0000 0000 000000
2018-07-09 06:36:25,0.00,0.09,0.00,24.06,27.68,30.24,14.05,47.52,1029.31,2027.96,3358.00,3070.97,3535.09,599.99,601.06,10.53,0000 0000 0000 0000 000000
2018-07-09 06:41:26,-0.00,0.09,0.00,24.08,27.70,30.26,14.10,47.55,1029.31,2027.82,3357.99,3070.69,3535.01,600.05,601.34,10.58,0000 0000 0000 0000 000000
2018-07-09 06:46:27,-0.02,0.09,0.00,24.09,27.72,30.27,13.99,47.61,1029.30,2027.53,3357.81,3070.20,3535.00,599.98,601.00,10.63,0000 0000 0000 0000 000000
2018-07-09 06:51:28,-0.01,0.09,0.00,24.11,27.74,30.29,14.04,47.66,1029.31,2027.11,3357.29,3070.02,3534.85,599.93,601.18,10.68,0000 0000 0000 0000 000000
2018-07-09 06:56:30,0.01,0.09,0.00,24.12,27.75,30.32,14.04,47.60,1029.30,2027.06,3357.01,3070.00,3534.31,599.95,601.14,10.74,0000 0000 0000 0000 000000
2018-07-09 07:01:31,0.00,0.09,0.00,24.14,27.77,30.33,14.06,47.67,1029.30,2027.02,3357.00,3069.99,3534.05,599.84,600.94,10.79,0000 0000 0000 0000 000000
2018-07-09 07:06:32,0.00,0.09,0.00,24.15,27.79,30.34,14.07,47.61,1029.16,2027.00,3357.00,3069.98,3534.00,600.05,600.98,10.84,0000 0000 0000 0000 000000
2018-07-09 07:11:33,0.01,0.09,0.00,24.20,27.81,30.36,13.90,47.53,1028.97,2027.00,3356.88,3069.75,3534.00,599.55,600.37,10.89,0000 0000 0000 0000 000000
2018-07-09 07:16:34,0.02,0.09,0.00,24.23,27.82,30.40,14.02,47.60,1028.86,2027.00,3356.22,3069.27,3533.96,600.21,600.77,10.94,0000 0000 0000 0000 000000
2018-07-09 07:21:35,0.01,0.09,0.00,24.24,27.84,30.45,14.07,47.50,1028.86,2027.00,3356.01,3069.05,3533.66,600.21,600.92,10.99,0000 0000 0000 0000 000000
2018-07-09 07:26:37,0.00,0.09,0.00,24.25,27.85,30.46,14.01,47.53,1028.84,2027.00,3356.00,3069.00,3533.09,600.02,600.71,11.04,0000 0000 0000 0000 000000
2018-07-09 07:31:38,0.00,0.09,0.00,24.26,27.87,30.51,14.05,47.62,1028.84,2027.00,3355.99,3069.00,3533.00,600.33,600.80,11.09,0000 0000 0000 0000 000000
2018-07-09 07:36:40,0.00,0.09,0.00,24.27,27.88,30.50,14.03,47.55,1028.84,2026.97,3355.81,3068.98,3533.00,599.74,600.41,11.14,0000 0000 0000 0000 000000
2018-07-09 07:41:41,0.02,0.09,0.00,24.27,27.90,30.54,14.09,47.58,1028.83,2026.96,3355.26,3068.81,3532.85,599.99,600.61,11.19,0000 0000 0000 0000 000000
2018-07-09 07:46:42,0.01,0.09,0.00,24.28,27.92,30.56,14.05,47.65,1028.83,2026.93,3355.02,3068.37,3532.47,600.31,600.88,11.24,0000 0000 0000 0000 000000
2018-07-09 07:51:43,0.01,0.09,0.00,24.29,27.92,30.59,13.96,47.52,1028.83,2026.88,3355.00,3068.11,3532.11,599.91,600.56,11.29,0000 0000 0000 0000 000000
2018-07-09 07:56:45,-0.02,0.09,0.00,24.27,27.95,30.73,14.06,47.57,1028.83,2026.70,3355.00,3068.01,3532.02,599.94,600.42,11.34,0000 0000 0000 0000 000000
2018-07-09 08:01:46,0.01,0.09,0.00,24.25,27.95,30.87,14.02,47.63,1028.81,2026.63,3354.47,3068.00,3531.98,599.70,600.53,11.39,0000 0000 0000 0000 000000
2018-07-09 08:06:47,0.01,0.09,0.00,24.25,27.96,30.94,14.02,47.68,1028.81,2026.60,3354.01,3067.96,3531.88,599.65,600.41,11.44,0000 0000 0000 0000 000000
2018-07-09 08:11:48,-0.01,0.09,0.00,24.24,27.97,30.94,14.02,47.75,1028.75,2026.52,3354.00,3067.86,3531.36,600.12,600.66,11.49,0000 0000 0000 0000 000000
2018-07-09 08:16:49,-0.01,0.09,0.00,24.26,27.97,30.92,14.05,47.71,1028.55,2026.10,3353.99,3067.32,3531.03,600.31,600.88,11.54,0000 0000 0000 0000 000000
2018-07-09 08:21:50,0.00,0.09,0.00,24.28,27.98,30.89,14.04,47.63,1028.38,2026.07,3353.95,3067.08,3531.00,599.82,600.04,11.59,0000 0000 0000 0000 000000
2018-07-09 08:26:51,0.00,0.09,0.00,24.31,28.00,30.87,14.04,47.63,1028.36,2026.04,3353.61,3067.03,3531.00,599.84,600.02,11.64,0000 0000 0000 0000 000000
2018-07-09 08:31:52,0.00,0.09,0.00,24.34,28.00,30.82,13.95,47.69,1028.37,2026.03,3353.16,3067.00,3530.99,599.73,599.95,11.69,0000 0000 0000 0000 000000
2018-07-09 08:36:53,0.00,0.09,0.00,24.39,28.00,30.77,14.05,47.73,1028.49,2026.01,3353.02,3067.00,3530.97,600.39,600.56,11.74,0000 0000 0000 0000 000000
2018-07-09 08:41:54,0.01,0.09,0.00,24.42,28.02,30.69,13.99,47.63,1028.57,2026.02,3353.00,3067.00,3530.75,599.97,600.24,11.79,0000 0000 0000 0000 000000
2018-07-09 08:46:56,0.01,0.09,0.00,24.46,28.03,30.66,13.95,47.70,1028.65,2026.00,3353.00,3066.98,3530.27,599.49,599.68,11.84,0000 0000 0000 0000 000000
2018-07-09 08:51:57,0.00,0.09,0.00,24.49,28.05,30.60,14.05,47.77,1028.71,2026.00,3352.98,3066.92,3530.03,600.01,600.13,11.89,0000 0000 0000 0000 000000
2018-07-09 08:56:58,0.00,0.09,0.00,24.52,28.06,30.59,14.02,47.64,1028.62,2026.00,3352.97,3066.85,3530.01,599.78,599.78,11.94,0000 0000 0000 0000 000000
2018-07-09 09:01:59,0.02,0.09,0.00,24.55,28.07,30.61,13.96,47.52,1028.62,2026.00,3352.64,3066.36,3530.00,599.76,599.85,11.99,0000 0000 0000 0000 000000
2018-07-09 09:07:00,0.00,0.09,0.00,24.58,28.09,30.63,14.00,47.64,1028.64,2025.99,3352.20,3066.06,3529.99,600.14,600.03,12.04,0000 0000 0000 0000 000000
2018-07-09 09:12:01,0.00,0.09,0.00,24.60,28.10,30.64,13.97,47.53,1028.74,2025.98,3352.06,3066.01,3529.87,599.82,599.72,12.09,0000 0000 0000 0000 000000
2018-07-09 09:17:03,0.01,0.10,0.00,24.62,28.12,30.65,14.01,47.60,1028.59,2025.97,3352.00,3066.00,3529.42,600.18,599.95,12.14,0000 0000 0000 0000 000000
2018-07-09 09:22:04,-0.00,0.10,0.00,24.65,28.14,30.67,13.94,47.42,1028.48,2025.88,3351.95,3065.98,3529.03,600.68,600.18,12.19,0000 0000 0000 0000 000000
2018-07-09 09:27:05,-0.03,0.09,0.00,24.68,28.15,30.67,13.95,47.49,1028.44,2025.30,3351.42,3065.63,3529.00,599.95,599.40,12.24,0000 0000 0000 0000 000000
2018-07-09 09:32:06,0.00,0.09,0.00,24.71,28.17,30.70,14.02,47.52,1028.40,2025.20,3351.18,3065.44,3528.98,599.96,599.44,12.29,0000 0000 0000 0000 000000
2018-07-09 09:37:07,-0.00,0.09,0.00,24.74,28.18,30.72,14.06,47.51,1028.35,2025.04,3351.01,3065.05,3528.67,600.58,599.99,12.34,0000 0000 0000 0000 000000
2018-07-09 09:42:08,0.00,0.09,0.00,24.77,28.20,30.72,14.02,47.63,1028.36,2025.02,3351.00,3065.00,3528.11,599.78,599.10,12.39,0000 0000 0000 0000 000000
2018-07-09 09:47:09,-0.00,0.09,0.00,24.80,28.22,30.75,13.94,47.66,1028.36,2025.02,3350.99,3065.00,3528.08,600.13,599.44,12.44,0000 0000 0000 0000 000000
2018-07-09 09:52:11,0.00,0.09,0.00,24.83,28.24,30.79,14.03,47.51,1028.35,2025.00,3350.94,3065.00,3528.01,600.18,599.36,12.49,0000 0000 0000 0000 000000
2018-07-09 09:57:12,0.00,0.09,0.00,24.87,28.26,30.76,13.93,47.46,1028.34,2025.00,3350.74,3064.98,3527.99,599.94,599.10,12.54,0000 0000 0000 0000 000000
2018-07-09 10:02:14,0.01,0.09,0.00,24.90,28.28,30.79,13.98,47.50,1028.34,2024.99,3350.13,3064.79,3527.95,600.03,598.95,12.59,0000 0000 0000 0000 000000
2018-07-09 10:07:15,0.02,0.10,0.00,24.96,28.31,30.82,13.96,47.46,1028.34,2024.99,3350.02,3064.35,3527.49,599.90,598.82,12.64,0000 0000 0000 0000 000000
2018-07-09 10:12:16,0.00,0.10,0.00,25.03,28.33,30.83,14.03,47.47,1028.34,2024.96,3350.00,3064.06,3527.08,600.24,599.02,12.69,0000 0000 0000 0000 000000
2018-07-09 10:17:18,-0.02,0.10,0.00,25.09,28.36,30.86,14.06,47.44,1028.35,2024.80,3349.98,3064.00,3527.00,600.23,598.97,12.74,0000 0000 0000 0000 000000
2018-07-09 10:22:19,-0.03,0.09,0.00,25.13,28.39,30.89,13.95,47.41,1028.35,2024.21,3349.50,3063.98,3526.78,600.16,598.66,12.79,0000 0000 0000 0000 000000
2018-07-09 10:27:20,0.01,0.09,0.00,25.16,28.43,30.93,13.96,47.50,1028.35,2024.04,3349.02,3063.60,3526.11,599.98,598.56,12.84,0000 0000 0000 0000 000000
2018-07-09 10:32:21,0.01,0.10,0.00,25.21,28.46,30.93,13.88,47.33,1028.35,2024.01,3349.00,3063.06,3526.00,599.72,598.24,12.89,0000 0000 0000 0000 000000
2018-07-09 10:37:22,0.00,0.10,0.00,25.28,28.50,30.95,13.92,47.50,1028.34,2024.00,3348.93,3063.00,3525.98,599.63,598.01,12.94,0000 0000 0000 0000 000000
2018-07-09 10:42:23,0.02,0.10,0.00,25.34,28.54,31.02,13.94,47.42,1028.35,2023.99,3348.29,3062.88,3525.32,600.11,598.38,12.99,0000 0000 0000 0000 000000
2018-07-09 10:47:25,0.02,0.10,0.00,25.37,28.57,31.07,13.95,47.44,1028.34,2023.98,3348.01,3062.29,3525.00,599.89,598.01,13.04,0000 0000 0000 0000 000000
2018-07-09 10:52:26,-0.01,0.10,0.00,25.40,28.61,31.15,14.00,47.36,1028.34,2023.85,3347.97,3062.02,3524.96,600.29,598.48,13.09,0000 0000 0000 0000 000000
2018-07-09 10:57:27,0.00,0.10,0.00,25.42,28.65,31.20,13.89,47.40,1028.35,2023.68,3347.58,3062.00,3524.65,599.43,597.49,13.14,0000 0000 0000 0000 000000
2018-07-09 11:02:28,-0.04,0.10,0.00,25.44,28.69,31.25,13.93,47.47,1028.35,2023.17,3347.02,3061.85,3524.06,599.64,597.73,13.19,0000 0000 0000 0000 000000
2018-07-09 11:07:29,0.01,0.10,0.00,25.46,28.72,31.30,13.94,47.42,1028.35,2023.01,3346.97,3061.13,3523.98,599.84,597.99,13.24,0000 0000 0000 0000 000000
2018-07-09 11:12:30,0.01,0.10,0.00,25.49,28.76,31.33,13.95,47.28,1028.35,2023.00,3346.68,3061.00,3523.67,600.07,597.93,13.30,0000 0000 0000 0000 000000
2018-07-09 11:17:32,0.01,0.10,0.00,25.52,28.79,31.34,13.95,47.31,1028.34,2023.00,3346.09,3061.00,3523.13,599.82,597.69,13.35,0000 0000 0000 0000 000000
2018-07-09 11:22:33,0.00,0.10,0.00,25.56,28.82,31.36,13.91,47.43,1028.34,2022.99,3346.00,3060.94,3523.00,599.92,597.53,13.40,0000 0000 0000 0000 000000
2018-07-09 11:27:34,0.01,0.10,0.00,25.60,28.86,31.41,13.91,47.36,1028.35,2022.88,3345.89,3060.30,3522.82,600.22,598.01,13.45,0000 0000 0000 0000 000000
2018-07-09 11:32:35,-0.04,0.10,0.00,25.61,28.88,31.47,13.94,47.37,1028.34,2022.19,3345.18,3060.01,3522.09,600.03,597.72,13.50,0000 0000 0000 0000 000000
2018-07-09 11:37:37,-0.00,0.10,0.00,25.60,28.91,31.53,13.99,47.49,1028.34,2022.01,3345.00,3059.99,3521.99,600.23,597.81,13.55,0000 0000 0000 0000 000000
2018-07-09 11:42:38,0.01,0.10,0.00,25.60,28.94,31.56,13.98,47.48,1028.34,2022.00,3344.98,3059.83,3521.85,600.07,597.67,13.60,0000 0000 0000 0000 000000
2018-07-09 11:47:39,0.02,0.10,0.00,25.60,28.96,31.57,13.97,47.45,1028.33,2022.00,3344.88,3059.31,3521.28,599.91,597.39,13.65,0000 0000 0000 0000 000000
2018-07-09 11:52:40,0.01,0.10,0.00,25.59,28.99,31.60,13.95,47.43,1028.32,2022.00,3344.39,3059.11,3521.08,599.95,597.61,13.70,0000 0000 0000 0000 000000
2018-07-09 11:57:42,0.00,0.10,0.00,25.57,29.00,31.61,13.94,47.27,1028.17,2021.98,3344.02,3059.00,3521.00,599.93,597.70,13.75,0000 0000 0000 0000 000000
2018-07-09 12:02:43,-0.01,0.10,0.00,25.57,29.02,31.64,13.95,47.38,1028.27,2021.88,3344.00,3059.00,3520.99,599.92,597.50,13.80,0000 0000 0000 0000 000000
2018-07-09 12:07:44,-0.04,0.10,0.00,25.55,29.04,31.67,13.93,47.40,1028.20,2021.47,3343.98,3058.99,3520.82,599.91,597.72,13.85,0000 0000 0000 0000 000000
2018-07-09 12:12:45,0.01,0.10,0.00,25.55,29.06,31.70,14.00,47.41,1028.22,2021.20,3343.61,3058.75,3520.25,600.05,597.69,13.90,0000 0000 0000 0000 000000
2018-07-09 12:17:47,0.01,0.10,0.00,25.55,29.07,31.75,13.94,47.38,1028.22,2021.05,3343.10,3058.32,3520.02,599.75,597.32,13.95,0000 0000 0000 0000 000000
2018-07-09 12:22:48,0.00,0.10,0.00,25.53,29.09,31.81,13.94,47.50,1027.89,2021.01,3343.01,3058.04,3520.00,599.96,597.49,14.00,0000 0000 0000 0000 000000
2018-07-09 12:27:50,0.00,0.10,0.00,25.51,29.10,31.81,13.95,47.45,1027.86,2021.01,3343.00,3058.00,3520.00,600.01,597.56,14.05,0000 0000 0000 0000 000000
2018-07-09 12:32:51,0.00,0.10,0.00,25.51,29.12,31.87,13.99,47.59,1027.85,2021.00,3342.99,3058.00,3519.99,600.05,597.75,14.10,0000 0000 0000 0000 000000
2018-07-09 12:37:52,0.00,0.10,0.00,25.51,29.12,31.90,13.97,47.33,1027.85,2021.00,3342.93,3057.99,3519.92,599.97,597.53,14.15,0000 0000 0000 0000 000000
2018-07-09 12:42:53,0.01,0.10,0.00,25.51,29.14,31.89,13.98,47.33,1027.85,2021.00,3342.56,3057.98,3519.55,600.16,597.75,14.20,0000 0000 0000 0000 000000
2018-07-09 12:47:55,0.01,0.10,0.00,25.52,29.15,31.99,13.93,47.32,1027.85,2021.00,3342.16,3057.95,3519.13,600.06,597.51,14.25,0000 0000 0000 0000 000000
2018-07-09 12:52:56,0.01,0.10,0.00,25.51,29.15,32.00,14.01,47.22,1027.85,2021.00,3342.00,3057.52,3519.00,600.21,597.77,14.30,0000 0000 0000 0000 000000
2018-07-09 12:57:57,0.01,0.10,0.00,25.52,29.17,32.02,13.95,47.31,1027.85,2021.00,3341.97,3057.16,3519.00,599.76,597.39,14.35,0000 0000 0000 0000 000000